Upstream stations:
Downstream station:
SHEF ID: NBEK1 NEOSHO R AT BURLINGAME RD NR EMP
STATION TYPE:
PRECIP STAGE STAGE(2) RIV-FLOW BAT-LOAD
in ft ft cfs volt
Ccp-Rev Ccp-Rev Ccp-Rev Ccp-Rev Ccp-Rev
(US/Central)
04/01 00:00 0.00 5.59 5.61 686 12.83
04/01 01:00 0.00 5.54 5.55 663 12.77
04/01 02:00 0.00 ---- 5.50 ---- ----
04/01 03:00 0.00 5.42 5.44 611 12.77
04/01 04:00 0.00 5.37 5.39 589 12.71
04/01 05:00 0.00 5.33 5.34 570 12.71
04/01 06:00 0.00 5.27 5.28 541 12.71
04/01 07:00 0.00 5.23 5.22 523 12.65
04/01 08:00 0.00 5.18 5.21 501 12.65
04/01 09:00 0.00 5.14 5.17 483 12.71
04/01 10:00 0.00 5.10 5.13 463 13.77
04/01 11:00 0.00 5.08 5.10 454 13.59
04/01 12:00 0.00 5.04 5.05 435 13.59
04/01 13:00 0.00 5.01 5.04 421 13.88
04/01 14:00 0.00 4.97 4.96 403 13.83
04/01 15:00 0.00 4.96 5.00 399 14.30
04/01 16:00 0.00 4.93 4.94 386 14.24
04/01 17:00 0.00 4.90 4.92 373 13.24
04/01 18:00 0.00 ---- 4.94 ---- ----
04/01 19:00 0.00 4.87 4.89 360 13.12
04/01 20:00 0.00 4.85 4.89 352 12.95
04/01 21:00 0.00 4.83 4.84 344 12.89
04/01 22:00 0.00 4.80 4.84 331 12.89
04/01 23:00 0.00 4.79 4.84 327 12.89